Simultaneous Nadir Overpasses (SNOs) Predictions

Prediction of SNOs between AURA and NPP Satellite Orbit:

Table of predicted SNOs for the next 14.0 days since TLE Epoch: 9/27/2013
Index Date (AURA) Time (AURA) Lat,Lon (AURA) SZA (AURA ) Date (NPP) Time (NPP) Lat,Lon (NPP) SZA (NPP ) Distance(km) Time Diff (sec)
1 09/29/2013 10:35:57 -78.86, 93.78 84.64 09/29/2013 10:35:09 -78.85, 93.67 84.58 2.56 48
2 09/29/2013 11:25:13 79.25, -96.22 94.86 09/29/2013 11:25:42 79.26, -96.11 94.81 2.42 29
3 10/02/2013 02:52:21 -78.97,-149.66 83.82 10/02/2013 02:52:03 -78.97,-149.73 83.79 1.56 18
4 10/02/2013 03:41:39 79.28, 19.85 95.80 10/02/2013 03:42:39 79.27, 19.73 95.78 2.83 60
5 10/04/2013 18:19:22 78.84, 157.84 97.32 10/04/2013 18:18:17 78.85, 157.91 97.36 1.70 65
6 10/04/2013 19:08:41 -79.18, -32.49 83.12 10/04/2013 19:08:53 -79.19, -32.38 83.15 2.57 12
7 10/07/2013 10:35:44 78.99, -85.41 98.10 10/07/2013 10:35:10 79.00, -85.30 98.11 2.38 34
8 10/07/2013 11:25:07 -79.17, 83.33 82.13 10/07/2013 11:25:51 -79.17, 83.19 82.14 2.97 44
9 10/10/2013 02:52:08 79.04, 30.75 99.01 10/10/2013 02:52:06 79.04, 30.74 99.01 0.33 2




NCC Satellite Simultaneous Nadir Overpasses (SNOs) Prediction Service
